K4AXV-13 Weather Reports


Display with metric or nautical units.
time (UTC)temp
F
wind
direction
speed
MPH
gust
MPH
rain 1hr
in
rain 24hr
in
rain mn
in
humidity
%
barometer
mb
20260901190214 91 129 2.0 1.0 0.00 0.00 0.01
20260901185715 91 84 1.0 2.0 0.00 0.00 0.01
20260901185213 90 91 2.0 2.0 0.00 0.00 0.01
20260901184714 91 84 0.0 0.0 0.00 0.00 0.01
20260901184212 90 118 6.0 5.0 0.00 0.00 0.01
20260901183211 90 128 4.0 7.0 0.00 0.00 0.01
20260901182712 90 80 4.0 2.0 0.00 0.00 0.01
20260901182210 91 53 0.0 0.0 0.00 0.00 0.01
20260901181710 91 62 0.0 0.0 0.00 0.00 0.01
20260901181208 90 101 1.0 0.0 0.00 0.00 0.01
20260901180708 90 134 1.0 1.0 0.00 0.00 0.01
20260901180207 89 93 4.0 4.0 0.00 0.00 0.01
20260901174706 90 100 1.0 1.0 0.00 0.00 0.01
20260901174205 89 115 2.0 1.0 0.00 0.00 0.01
20260901173705 89 87 2.0 1.0 0.00 0.00 0.01
20260901173202 89 100 0.0 3.0 0.00 0.00 0.01
20260901172702 89 103 1.0 0.0 0.00 0.00 0.01
20260901172201 89 138 1.0 4.0 0.00 0.00 0.01
20260901171701 89 55 0.0 0.0 0.00 0.00 0.01
20260901171200 88 84 1.0 4.0 0.00 0.00 0.01
20260901170701 89 141 5.0 5.0 0.00 0.00 0.01
20260901170159 89 128 6.0 5.0 0.00 0.00 0.01
20260901165659 89 55 0.0 0.0 0.00 0.00 0.01
20260901165156 88 148 3.0 5.0 0.00 0.00 0.01
20260901164657 89 101 1.0 2.0 0.00 0.00 0.01
20260901164155 89 107 2.0 2.0 0.00 0.00 0.01
20260901163656 89 105 2.0 1.0 0.00 0.00 0.01
20260901163154 89 75 1.0 1.0 0.00 0.00 0.01
20260901162655 89 72 0.0 0.0 0.00 0.00 0.01
20260901162153 89 72 4.0 3.0 0.00 0.00 0.01
20260901161654 90 96 2.0 2.0 0.00 0.00 0.01
20260901161152 90 285 1.0 0.0 0.00 0.00 0.01
20260901160653 90 277 1.0 0.0 0.00 0.00 0.01
20260901160151 89 200 0.0 1.0 0.00 0.00 0.01
20260901155652 88 25 0.0 0.0 0.00 0.00 0.01
20260901155149 89 25 1.0 0.0 0.00 0.00 0.01
20260901154650 88 308 0.0 0.0 0.00 0.00 0.01
20260901152648 86 34 0.0 0.0 0.00 0.00 0.01
20260901152146 85 100 3.0 4.0 0.00 0.00 0.01
20260901151146 85 104 5.0 4.0 0.00 0.00 0.01
20260901150647 85 141 3.0 2.0 0.00 0.00 0.01
20260901150145 85 96 3.0 2.0 0.00 0.00 0.01
20260901145646 84 98 4.0 3.0 0.00 0.00 0.01
20260901145144 84 84 4.0 4.0 0.00 0.00 0.01
20260901144645 85 103 2.0 2.0 0.00 0.00 0.01
20260901144141 84 176 0.0 0.0 0.00 0.00 0.01
20260901143642 83 238 1.0 1.0 0.00 0.00 0.01
20260901143140 83 231 0.0 0.0 0.00 0.00 0.01
20260901142139 82 98 0.0 0.0 0.00 0.00 0.01
20260901141640 82 98 0.0 0.0 0.00 0.00 0.01
20260901141237 80 98 0.0 0.0 0.00 0.00 0.01
20260901141137 81 98 0.0 0.0 0.00 0.00 0.01
20260901140135 80 98 0.0 0.0 0.00 0.00 0.01
20260901135525 80 97 2.0 2.0 0.00 0.00 0.01
20260901135134 80 97 2.0 2.0 0.00 0.00 0.01
20260901134817 80 101 3.0 3.0 0.00 0.00 0.01
20260901134635 80 101 3.0 3.0 0.00 0.00 0.01
20260901134131 80 82 0.0 0.0 0.00 0.00 0.01
20260901133127 80 96 0.0 0.0 0.00 0.00 0.01
20260901132127 79 96 0.0 0.0 0.00 0.00 0.01
20260901131731 79 96 0.0 0.0 0.00 0.00 0.01
20260901131628 79 96 0.0 0.0 0.00 0.00 0.01
20260901131203 79 96 0.0 0.0 0.00 0.00 0.01
20260901131124 79 96 0.0 0.0 0.00 0.00 0.01
20260901130741 79 87 0.0 1.0 0.00 0.00 0.01
20260901130625 79 87 0.0 1.0 0.00 0.00 0.01
20260901130333 77 107 0.0 0.0 0.00 0.00 0.01
20260901130331 77 107 0.0 0.0 0.00 0.00 0.01
20260901130300 77 107 0.0 0.0 0.00 0.00 0.01
20260901130258 77 107 0.0 0.0 0.00 0.00 0.01
20260901125624 78 107 0.0 0.0 0.00 0.00 0.01
20260901125119 78 107 0.0 0.0 0.00 0.00 0.01
20260901124621 78 107 0.0 0.0 0.00 0.00 0.01
20260901123618 77 107 0.0 0.0 0.00 0.00 0.01
20260901123311 77 107 0.0 0.0 0.00 0.00 0.01
20260901123240 77 107 0.0 0.0 0.00 0.00 0.01
20260901123112 77 107 0.0 0.0 0.00 0.00 0.01
20260901122613 77 107 0.0 0.0 0.00 0.00 0.01
20260901122114 76 107 0.0 0.0 0.00 0.00 0.01
20260901121613 76 107 0.0 0.0 0.00 0.00 0.01
20260901121108 75 107 0.0 0.0 0.00 0.00 0.01
20260901120609 76 107 0.0 0.0 0.00 0.00 0.01
20260901114103 74 107 0.0 0.0 0.00 0.00 0.01
20260901113655 74 107 0.0 0.0 0.00 0.00 0.01
20260901113605 74 107 0.0 0.0 0.00 0.00 0.01
20260901112708 75 107 0.0 0.0 0.00 0.00 0.01
20260901112603 75 107 0.0 0.0 0.00 0.00 0.01
20260901112545 75 107 0.0 0.0 0.00 0.00 0.01
20260901112442 75 107 0.0 0.0 0.00 0.00 0.01
20260901112059 75 107 0.0 0.0 0.00 0.00 0.01
20260901111600 75 107 0.0 0.0 0.00 0.00 0.01
20260901111056 74 107 0.0 0.0 0.00 0.00 0.01
20260901110557 75 107 0.0 0.0 0.00 0.00 0.01
20260901105634 75 107 0.0 0.0 0.00 0.00 0.01
20260901105557 75 107 0.0 0.0 0.00 0.00 0.01
20260901105055 75 107 0.0 0.0 0.00 0.00 0.01
20260901104050 74 107 0.0 0.0 0.00 0.00 0.01
20260901103551 74 107 0.0 0.0 0.00 0.00 0.01
20260901102936 74 107 0.0 0.0 0.00 0.00 0.01
20260901102900 74 107 0.0 0.0 0.00 0.00 0.01
20260901102550 74 107 0.0 0.0 0.00 0.00 0.01
20260901102048 75 107 0.0 0.0 0.00 0.00 0.01
20260901101350 75 107 0.0 0.0 0.00 0.00 0.01
20260901101317 75 107 0.0 0.0 0.00 0.00 0.01
20260901101244 75 107 0.0 0.0 0.00 0.00 0.01
20260901101045 75 107 0.0 0.0 0.00 0.00 0.01
20260901095545 75 107 0.0 0.0 0.00 0.00 0.01
20260901094617 75 107 0.0 0.0 0.00 0.00 0.01
20260901094541 75 107 0.0 0.0 0.00 0.00 0.01
20260901093600 75 107 0.0 0.0 0.00 0.00 0.01
20260901093539 75 107 0.0 0.0 0.00 0.00 0.01
20260901093526 75 107 0.0 0.0 0.00 0.00 0.01
20260901093446 75 107 0.0 0.0 0.00 0.00 0.01
20260901092538 76 107 0.0 0.0 0.00 0.00 0.01
20260901091536 75 107 0.0 0.0 0.00 0.00 0.01
20260901091118 75 107 0.0 0.0 0.00 0.00 0.01
20260901091031 75 107 0.0 0.0 0.00 0.00 0.01
20260901090531 75 107 0.0 0.0 0.00 0.00 0.01
20260901090029 76 107 0.0 0.0 0.00 0.00 0.01
20260901085100 74 107 0.0 0.0 0.00 0.00 0.01
20260901085026 74 107 0.0 0.0 0.00 0.00 0.01
20260901083523 76 107 0.0 0.0 0.00 0.00 0.01
20260901083508 75 107 0.0 0.0 0.01 0.00 0.01
20260901083017 75 107 0.0 0.0 0.01 0.00 0.01
20260901082911 75 107 0.0 0.0 0.01 0.00 0.01
20260901082909 75 107 0.0 0.0 0.01 0.00 0.01
20260901082610 75 107 0.0 0.0 0.01 0.00 0.01
20260901082518 75 107 0.0 0.0 0.01 0.00 0.01
20260901081552 75 107 0.0 0.0 0.01 0.00 0.01
20260901081513 75 107 0.0 0.0 0.01 0.00 0.01
20260901081011 75 107 0.0 0.0 0.01 0.00 0.01
20260901080951 75 107 0.0 0.0 0.01 0.00 0.01
20260901080948 75 107 0.0 0.0 0.01 0.00 0.01
20260901080853 75 107 0.0 0.0 0.01 0.00 0.01
20260901080847 75 107 0.0 0.0 0.01 0.00 0.01
20260901080042 75 107 0.0 0.0 0.01 0.00 0.01
20260901080008 75 107 0.0 0.0 0.01 0.00 0.01
20260901074508 75 107 0.0 0.0 0.01 0.00 0.01
20260901074005 75 107 0.0 0.0 0.01 0.00 0.01
20260901073506 75 107 0.0 0.0 0.01 0.00 0.01
20260901073004 75 107 0.0 0.0 0.00 0.00 0.01
20260901072809 75 107 0.0 0.0 0.00 0.00 0.01
20260901072623 75 107 0.0 0.0 0.00 0.00 0.01
20260901072506 74 107 0.0 0.0 0.00 0.00 0.01
20260901072114 75 107 0.0 0.0 0.00 0.00 0.01
20260901072000 75 107 0.0 0.0 0.00 0.00 0.01
20260901071027 75 107 0.0 0.0 0.00 0.00 0.01
20260901071022 75 107 0.0 0.0 0.00 0.00 0.00
20260901070956 75 107 0.0 0.0 0.00 0.00 0.01
20260901070943 75 107 0.0 0.0 0.00 0.00 0.00
20260901070901 75 107 0.0 0.0 0.00 0.00 0.00
20260901070528 75 107 0.0 0.0 0.00 0.00 0.01
20260901070457 75 107 0.0 0.0 0.00 0.00 0.01
20260901070032 75 107 0.0 0.0 0.00 0.00 0.00
20260901065953 75 107 0.0 0.0 0.00 0.00 0.00
20260901065556 75 107 0.0 0.0 0.00 0.00 0.00
20260901065454 75 107 0.0 0.0 0.00 0.00 0.00
20260901065023 75 107 0.0 0.0 0.00 0.00 0.00
20260901064950 75 107 0.0 0.0 0.00 0.00 0.00
20260901064855 76 107 0.0 0.0 0.00 0.00 0.00
20260901064816 75 107 0.0 0.0 0.00 0.00 0.00
20260901064745 75 107 0.0 0.0 0.00 0.00 0.00
20260901064450 75 107 0.0 0.0 0.00 0.00 0.00
20260901064024 75 107 0.0 0.0 0.00 0.00 0.00
20260901063948 75 107 0.0 0.0 0.00 0.00 0.00
20260901063448 76 107 0.0 0.0 0.00 0.00 0.00
20260901062848 76 107 0.0 0.0 0.00 0.01 0.00
20260901062801 76 107 0.0 0.0 0.00 0.01 0.00
20260901061442 76 107 0.0 0.0 0.00 0.01 0.00
20260901060939 76 107 0.0 0.0 0.00 0.01 0.00
20260901060532 76 107 0.0 0.0 0.00 0.01 0.00
20260901060441 76 107 0.0 0.0 0.00 0.01 0.00
20260901055937 76 107 0.0 0.0 0.00 0.01 0.00
20260901055024 76 107 0.0 0.0 0.00 0.01 0.00
20260901054935 76 107 0.0 0.0 0.00 0.01 0.00
20260901053434 76 107 0.0 0.0 0.00 0.01 0.00
20260901052930 76 107 0.0 0.0 0.00 0.01 0.00
20260901051425 76 107 0.0 0.0 0.00 0.01 0.00
20260901042943 77 107 0.0 0.0 0.00 0.01 0.00
20260901042909 77 107 0.0 0.0 0.00 0.01 0.00
20260901041941 77 107 0.0 0.0 0.00 0.01 0.00
20260901041906 77 107 0.0 0.0 0.00 0.01 0.00
20260901040908 77 107 0.0 0.0 0.00 0.01 0.00
20260901040406 77 107 0.0 0.0 0.00 0.01 0.00
20260901035857 77 107 0.0 0.0 0.00 0.01 0.00
20260901035358 77 107 0.0 0.0 0.00 0.01 0.00
20260901034945 77 107 0.0 0.0 0.00 0.01 0.00
20260901034855 77 107 0.0 0.0 0.00 0.01 0.00
20260901034357 78 107 0.0 0.0 0.00 0.01 0.00
20260901033852 78 107 0.0 0.0 0.00 0.01 0.00
20260901032352 78 107 0.0 0.0 0.00 0.01 0.00
20260901031351 77 107 0.0 0.0 0.00 0.01 0.00
20260901030847 78 107 0.0 0.0 0.00 0.01 0.00
20260901030347 78 107 0.0 0.0 0.00 0.01 0.00
20260901025346 78 107 0.0 0.0 0.00 0.01 0.00
20260901024020 78 107 0.0 0.0 0.00 0.01 0.00
20260901023837 78 107 0.0 0.0 0.00 0.01 0.00
20260901023334 78 107 0.0 0.0 0.00 0.01 0.00
20260901022832 78 107 0.0 0.0 0.00 0.01 0.00
20260901021330 78 107 0.0 0.0 0.00 0.01 0.00
20260901020827 79 107 0.0 0.0 0.00 0.01 0.00
20260901020400 79 107 0.0 0.0 0.00 0.01 0.00
20260901020328 79 107 0.0 0.0 0.00 0.01 0.00
20260901015325 79 107 0.0 0.0 0.00 0.01 0.00
20260901014822 79 107 0.0 0.0 0.00 0.01 0.00
20260901014323 80 107 0.0 0.0 0.00 0.01 0.00
20260901012819 80 107 0.0 0.0 0.00 0.01 0.00
20260901011316 79 107 0.0 0.0 0.00 0.01 0.00
20260901010811 79 107 0.0 0.0 0.00 0.01 0.00
20260901005809 80 107 0.0 0.0 0.00 0.01 0.00
20260901005310 80 107 0.0 0.0 0.00 0.01 0.00
20260901004806 80 107 0.0 0.0 0.00 0.01 0.00
20260901003804 80 107 0.0 0.0 0.00 0.01 0.00
20260901003305 80 107 0.0 0.0 0.00 0.01 0.00
20260901002759 80 107 0.0 0.0 0.00 0.01 0.00
20260901001756 81 107 0.0 0.0 0.00 0.01 0.00
20260831235754 81 107 0.0 0.0 0.00 0.01 0.00
20260831235255 81 138 2.0 1.0 0.00 0.01 0.00
20260831234753 82 139 3.0 2.0 0.00 0.01 0.00
20260831234252 82 132 1.0 2.0 0.00 0.01 0.00
20260831233750 82 94 0.0 0.0 0.00 0.01 0.00
20260831232749 82 89 0.0 0.0 0.00 0.01 0.00
20260831232250 83 117 1.0 1.0 0.00 0.01 0.00
20260831231746 83 114 1.0 1.0 0.00 0.01 0.00
20260831231247 83 128 3.0 2.0 0.00 0.01 0.00
20260831230246 83 172 2.0 3.0 0.00 0.01 0.00
20260831225744 83 128 4.0 3.0 0.00 0.01 0.00
20260831225245 84 105 3.0 4.0 0.00 0.01 0.00
20260831224244 83 104 2.0 2.0 0.00 0.01 0.00
20260831223742 84 145 4.0 4.0 0.00 0.01 0.00
20260831223243 84 136 4.0 5.0 0.00 0.01 0.00
20260831222740 85 136 5.0 5.0 0.00 0.01 0.00
20260831222241 85 149 4.0 6.0 0.00 0.01 0.00
20260831221738 84 135 5.0 4.0 0.00 0.01 0.00
20260831221237 85 118 4.0 4.0 0.00 0.01 0.00
20260831220734 85 142 5.0 5.0 0.00 0.01 0.00
20260831220235 85 139 5.0 4.0 0.00 0.01 0.00
20260831215732 85 145 4.0 4.0 0.00 0.01 0.00
20260831215233 85 138 4.0 5.0 0.00 0.01 0.00
20260831214729 85 138 5.0 3.0 0.00 0.01 0.00
20260831214229 85 142 4.0 5.0 0.00 0.01 0.00
20260831213728 85 166 5.0 5.0 0.00 0.01 0.00
20260831213229 86 141 4.0 5.0 0.00 0.01 0.00
20260831212724 86 136 3.0 2.0 0.00 0.01 0.00
20260831212225 86 136 1.0 2.0 0.00 0.01 0.00
20260831211722 86 90 2.0 1.0 0.00 0.01 0.00
20260831211223 87 127 1.0 0.0 0.00 0.01 0.00
20260831210719 87 68 0.0 0.0 0.00 0.01 0.00
20260831210220 87 89 0.0 0.0 0.00 0.01 0.00
20260831205716 87 24 0.0 0.0 0.00 0.01 0.00
20260831205217 86 105 0.0 0.0 0.00 0.01 0.00
20260831204714 86 145 4.0 3.0 0.00 0.01 0.00
20260831204216 87 125 5.0 4.0 0.00 0.01 0.00
20260831203712 86 155 2.0 4.0 0.00 0.01 0.00
20260831203304 86 136 1.0 3.0 0.00 0.01 0.00
20260831203213 86 136 1.0 3.0 0.00 0.01 0.00
20260831202711 86 153 4.0 3.0 0.00 0.01 0.00
20260831202212 86 105 0.0 0.0 0.00 0.01 0.00
20260831201710 86 105 0.0 0.0 0.00 0.01 0.00
20260831201211 86 105 0.0 0.0 0.00 0.01 0.00
20260831200709 86 105 0.0 0.0 0.00 0.01 0.00
20260831200210 86 105 0.0 0.0 0.00 0.01 0.00
20260831195708 86 124 1.0 2.0 0.00 0.01 0.00
20260831195209 86 150 2.0 4.0 0.00 0.01 0.00
20260831194707 86 139 5.0 3.0 0.00 0.01 0.00
20260831194208 87 153 4.0 5.0 0.00 0.01 0.00
20260831193706 86 124 5.0 6.0 0.00 0.01 0.00
20260831193207 87 145 1.0 4.0 0.00 0.01 0.00
20260831192706 87 163 3.0 2.0 0.00 0.01 0.00
20260831192206 86 134 2.0 2.0 0.00 0.01 0.00
20260831191705 86 135 6.0 8.0 0.00 0.01 0.00
20260831190703 85 149 6.0 6.0 0.00 0.01 0.00